Theta_e
344 345 345 345 346 347 349 352 358 361 361 357 357 363 364 365 368 368 366 367 369 366 363 358 349 352 358 359 358 357 357 358 359 356 355 351 347 348 349 348 350 350 350 350 352 351 348 349 351 350 351 351 350 350 350 350 350 350 350 350 350 350 350 350 350 349 349 349 349 349 350 350 351 351 351 351 351 351 351 351 351 351 353 353 352 350 346 343 342 342 341 342 345 347 349 350 350
345 346 345 344 345 350 354 356 360 360 358 356 358 366 366 367 369 370 368 366 368 363 360 354 353 359 358 357 357 356 357 355 354 353 352 349 348 349 347 348 350 350 350 350 352 350 347 350 351 350 351 351 350 350 350 350 350 350 350 350 349 349 349 349 349 349 349 350 350 350 351 351 351 351 351 351 352 352 352 353 352 352 352 352 351 350 348 345 343 343 342 341 344 347 349 350 350
345 347 344 346 348 352 357 358 360 357 356 355 360 369 369 371 371 369 367 364 364 360 359 357 359 361 356 358 359 359 358 350 348 349 349 349 350 349 348 349 350 352 351 350 351 349 347 349 351 350 350 350 350 350 350 350 349 349 350 350 350 349 350 349 349 350 351 351 351 352 352 351 351 351 352 352 352 353 353 353 352 352 352 351 350 350 350 348 345 344 344 344 344 345 348 350 350
344 346 345 349 352 355 360 363 364 358 356 355 358 369 371 372 371 366 363 361 360 359 362 362 362 357 359 364 358 360 357 350 348 348 350 349 349 349 348 349 351 352 352 352 351 348 346 349 351 350 350 350 350 350 350 350 349 350 350 350 350 350 350 351 350 351 351 352 353 352 352 351 351 352 353 353 352 353 353 353 352 352 352 351 350 351 350 349 348 346 344 344 343 344 348 350 350
344 347 346 350 357 360 363 365 367 360 358 361 360 369 372 371 369 363 361 360 358 360 362 362 361 356 357 358 354 360 357 349 349 348 349 348 348 348 347 349 351 352 353 352 350 347 345 347 350 350 350 350 350 349 349 350 350 350 351 350 350 350 351 352 352 351 351 352 353 352 352 352 352 352 353 353 353 352 352 353 352 351 351 350 350 351 350 350 350 348 345 342 342 346 350 350 349
344 349 347 351 357 359 364 363 362 359 362 368 369 373 371 368 368 363 362 361 359 360 358 359 358 356 356 353 350 354 352 349 349 348 349 349 348 348 347 349 350 352 353 353 350 347 345 346 349 350 350 350 349 349 349 350 350 350 350 351 351 351 350 351 353 352 352 353 353 353 352 353 352 353 352 352 352 353 353 352 351 351 351 351 351 350 349 351 351 349 347 342 342 345 349 350 350
346 351 351 355 359 359 365 362 359 361 364 367 372 379 371 368 367 362 363 360 360 359 356 358 354 359 359 353 352 351 349 350 349 348 348 349 349 348 348 349 350 352 352 353 351 347 346 346 349 350 349 350 350 349 349 350 351 351 351 351 351 351 350 351 353 352 353 353 353 353 352 353 352 353 352 352 352 352 353 351 350 351 351 351 350 350 349 351 351 351 348 341 339 343 349 350 350
348 353 355 361 366 364 365 362 361 364 366 364 368 375 369 366 366 362 361 360 361 359 356 355 352 362 360 352 356 354 350 349 347 348 349 350 350 349 349 348 350 351 352 352 350 347 346 345 348 350 350 350 349 349 350 350 351 351 351 351 351 351 352 352 352 351 352 352 352 353 352 352 352 352 352 352 352 352 352 351 350 350 351 350 350 351 351 351 351 351 350 343 339 343 350 351 349
351 356 360 363 367 364 360 362 362 364 367 365 364 369 366 362 363 362 361 360 359 357 356 354 355 365 358 354 358 353 350 350 347 349 349 351 350 349 349 348 349 351 351 352 350 348 346 346 348 349 350 349 349 349 349 350 351 351 351 352 351 351 352 351 351 351 352 351 352 352 351 352 351 352 352 352 352 352 352 351 352 351 351 351 351 351 350 351 350 351 351 346 342 343 348 351 350
355 357 362 365 364 359 357 361 364 367 368 368 368 368 366 361 362 363 359 359 357 357 356 354 357 362 357 357 357 352 351 349 348 350 351 351 350 349 348 348 348 350 351 352 350 348 347 345 347 349 350 349 349 349 349 350 351 351 351 351 351 351 351 350 351 351 352 352 351 351 352 352 350 351 352 352 352 352 352 352 352 352 352 352 352 351 351 351 350 351 350 348 345 344 348 351 350
361 358 360 365 361 356 357 359 364 370 367 368 369 368 367 361 363 364 359 359 357 359 358 355 357 356 355 356 356 353 351 349 350 351 350 350 350 349 348 348 348 349 350 351 350 348 347 345 346 349 348 348 348 349 349 349 351 351 350 350 350 351 351 350 351 351 351 351 351 351 352 352 350 350 350 350 351 350 351 352 352 352 352 352 352 351 351 350 350 349 349 348 346 346 348 350 350
364 363 363 364 360 359 362 361 367 370 367 368 366 365 366 360 363 364 360 360 358 359 356 356 356 353 356 357 355 352 350 351 351 351 351 351 350 349 348 348 348 347 349 350 350 349 348 346 346 348 348 349 348 348 349 349 350 351 350 350 351 351 351 351 351 350 350 350 350 351 352 351 349 348 348 348 349 348 349 350 351 352 351 351 351 351 350 350 350 349 348 348 347 347 349 350 349
361 364 364 364 361 365 365 364 371 368 365 368 363 361 362 359 363 362 360 359 358 359 356 354 353 353 356 356 355 352 350 351 351 352 350 350 349 349 348 348 348 347 349 350 350 350 349 347 346 347 348 348 348 348 348 349 349 350 350 350 351 351 350 351 351 351 350 350 350 351 351 349 349 349 348 348 349 348 347 347 349 351 351 352 352 351 350 349 349 349 349 349 349 349 349 350 349
359 364 364 364 365 368 365 363 368 361 361 367 362 363 364 364 366 362 360 359 359 357 355 352 350 355 356 355 357 352 350 352 351 351 350 350 350 349 348 348 348 347 349 350 351 350 350 349 345 345 348 348 348 349 348 349 349 349 349 349 350 350 350 351 351 351 351 349 349 350 350 349 350 350 348 348 348 348 347 347 348 348 349 351 351 351 350 349 349 348 348 349 350 350 350 351 349
356 363 364 364 365 365 364 364 365 360 362 366 362 365 367 366 366 365 361 361 360 353 353 352 350 356 357 355 357 352 351 351 351 351 350 350 349 349 349 348 347 348 350 350 351 351 351 349 345 345 348 348 348 349 348 348 348 349 348 349 349 349 349 350 350 351 351 349 349 349 349 349 350 350 349 349 348 348 348 350 349 347 347 349 350 350 350 349 348 348 348 349 349 349 350 351 349
352 359 363 365 361 360 364 363 363 361 360 362 362 363 367 363 359 363 363 362 359 351 353 354 351 356 355 353 353 350 351 352 350 350 350 350 350 350 350 349 349 349 351 351 351 351 351 349 346 345 347 347 348 348 348 348 349 349 349 349 348 348 348 348 349 350 349 348 348 349 349 349 350 351 350 350 350 349 348 350 350 349 348 348 350 350 350 349 348 349 349 350 349 350 350 351 349
351 360 365 363 359 361 366 362 359 362 361 362 362 361 366 363 355 358 358 357 357 354 356 355 351 352 351 350 351 351 351 351 350 351 351 351 351 351 351 351 351 351 351 351 351 352 352 350 345 345 346 347 347 348 347 348 349 350 350 350 348 348 348 347 347 347 347 347 347 347 349 349 350 351 351 350 349 347 346 350 350 350 350 349 351 350 350 350 349 349 350 349 349 350 351 350 350
353 363 364 361 361 362 365 361 357 360 361 362 363 360 363 363 358 356 355 356 356 355 355 354 352 350 350 350 350 351 351 350 350 351 352 352 352 352 353 352 352 352 352 352 352 352 352 350 345 344 347 347 346 348 347 348 349 350 350 350 350 349 348 347 346 345 345 345 346 347 347 347 348 349 349 348 346 344 346 349 350 350 350 349 350 349 348 349 349 349 349 349 349 350 350 348 348
353 362 364 362 364 362 358 357 355 355 360 362 360 359 360 361 358 356 358 359 356 357 356 353 353 351 349 350 351 351 350 350 350 351 352 352 352 352 352 353 352 352 352 352 352 352 353 350 345 342 345 346 346 347 347 348 350 349 349 350 350 350 349 346 345 345 342 342 344 345 345 343 343 344 344 346 344 342 347 349 350 351 350 348 349 348 348 348 348 348 348 349 351 350 349 348 347
352 357 362 363 361 359 355 353 352 355 363 362 358 358 358 357 355 355 359 359 357 359 358 355 355 352 351 350 350 351 350 350 350 351 352 352 351 351 351 352 352 352 352 352 352 352 353 352 347 342 342 346 346 346 347 348 349 349 348 348 350 350 349 347 345 344 342 341 342 342 341 339 339 339 341 345 344 341 346 349 350 352 351 348 347 347 347 347 346 348 348 349 351 350 350 350 349
353 355 360 362 360 361 362 356 352 355 360 360 357 358 358 355 353 354 357 361 360 357 356 356 355 352 351 350 350 350 350 349 350 351 352 352 352 351 351 352 351 352 352 352 352 352 353 352 349 345 341 343 345 345 346 347 349 349 348 348 349 350 350 347 345 343 341 340 341 341 339 338 341 342 343 346 343 340 343 346 348 350 348 348 347 346 346 346 346 347 349 349 350 350 351 351 350
352 354 357 358 358 360 360 355 353 355 356 357 358 358 356 354 352 354 358 363 363 356 354 353 351 351 351 350 350 350 349 349 349 351 352 352 351 351 351 351 351 352 352 352 352 353 353 353 350 346 341 341 344 345 346 347 347 348 348 347 348 349 349 348 345 343 341 340 340 339 339 341 345 347 347 347 344 342 342 343 345 347 347 348 348 348 349 349 349 348 349 350 350 350 351 351 350
352 353 351 353 356 357 356 352 352 356 358 358 358 356 353 354 354 354 356 360 359 353 353 352 350 350 350 350 350 349 348 348 349 350 351 352 352 352 351 351 351 352 353 352 352 353 353 353 351 347 341 339 343 344 346 347 346 348 347 347 347 348 348 347 345 342 341 340 339 339 342 346 349 349 348 348 347 345 344 344 345 348 349 350 350 350 350 350 350 350 350 350 350 350 351 351 350
348 350 347 348 349 351 351 350 349 354 360 357 354 354 354 355 356 353 355 357 355 354 352 350 350 350 350 350 349 349 349 349 349 350 351 351 352 351 351 351 351 351 352 352 353 353 353 353 352 349 343 338 341 343 345 346 346 347 347 346 346 347 347 347 344 342 340 339 338 340 346 349 350 350 349 349 349 348 347 346 346 348 350 351 350 350 349 349 349 350 350 350 350 350 350 350 350
342 345 344 344 343 345 345 347 348 351 355 352 352 354 354 355 354 354 354 354 354 353 352 350 349 350 350 349 349 349 349 349 349 349 350 351 352 351 351 351 351 351 352 352 353 353 353 353 353 351 346 340 339 341 343 345 345 346 347 345 345 346 346 345 344 343 340 339 339 342 348 351 350 350 350 350 350 350 350 349 349 350 351 351 350 350 349 349 350 350 350 350 351 351 350 349 350
340 342 343 342 342 343 344 346 346 349 352 351 353 355 353 351 352 353 352 352 353 353 351 350 350 351 350 349 349 348 349 349 349 349 350 351 351 351 351 350 350 350 351 352 353 353 353 353 353 352 349 343 339 340 342 344 345 345 346 344 344 344 344 344 344 343 341 340 339 342 348 351 351 350 350 350 351 351 351 351 351 351 351 350 350 350 351 350 350 351 352 351 352 352 350 349 349
338 339 340 340 340 341 342 344 345 347 350 351 354 355 353 350 351 355 354 352 353 353 353 351 351 351 351 350 349 349 349 350 350 350 350 351 351 351 351 350 350 350 350 352 352 352 353 353 353 351 349 346 340 339 340 342 343 343 344 343 343 342 342 342 342 342 341 341 339 341 347 351 351 351 350 350 350 350 351 351 351 351 350 349 350 350 351 352 352 352 352 352 353 352 350 350 350
337 337 340 339 339 340 340 344 344 345 348 349 353 353 352 350 350 354 356 354 353 354 354 352 352 350 350 350 349 349 349 350 351 350 350 351 351 351 351 351 349 349 350 351 351 352 353 352 352 352 350 347 342 338 337 340 341 342 342 342 341 341 340 340 341 342 342 341 341 341 346 351 351 351 352 351 351 350 350 350 351 351 350 350 350 350 351 351 352 352 352 352 353 353 351 351 351
334 335 338 338 339 340 340 343 342 344 347 348 349 350 351 351 350 353 356 353 354 355 354 353 353 351 350 350 350 350 349 351 351 350 351 350 351 351 351 350 350 349 349 350 351 351 352 352 352 352 350 348 343 337 336 337 338 340 341 340 340 340 339 339 340 340 341 342 343 343 347 350 351 351 351 351 351 351 351 351 351 351 350 351 351 350 351 351 352 353 352 352 352 353 352 351 351
335 334 337 338 339 341 340 341 342 344 348 346 347 344 348 351 350 355 355 353 355 356 355 354 353 352 351 350 350 350 349 351 352 350 351 350 351 351 351 351 349 349 349 349 350 350 351 352 352 352 351 349 346 339 336 336 337 338 338 339 339 339 339 338 338 338 339 340 342 346 349 351 351 350 351 351 351 351 351 351 351 351 351 351 351 351 352 352 353 353 353 351 349 350 351 351 350
334 335 337 339 337 339 341 342 343 346 346 346 347 342 346 351 351 355 354 353 356 356 356 355 353 353 351 351 350 350 350 350 352 352 351 351 351 351 351 351 350 349 349 348 349 349 350 351 352 352 352 350 347 343 338 336 336 336 336 337 338 338 337 337 337 337 337 338 339 345 351 352 352 351 351 351 351 352 351 351 351 351 351 351 352 351 352 353 353 353 353 352 349 350 351 351 349
334 329 331 336 335 337 339 342 345 347 346 347 346 341 345 349 352 355 353 353 356 356 356 355 354 353 351 351 351 351 351 351 352 353 352 352 351 351 351 352 351 350 349 348 348 349 350 350 351 351 351 350 349 346 342 339 336 335 335 335 337 337 337 336 336 336 337 337 338 345 351 352 352 352 352 352 352 352 352 351 351 351 351 351 352 352 352 353 353 353 354 353 352 352 350 349 348
335 329 327 332 333 333 334 338 345 346 348 348 346 345 349 351 355 354 353 354 356 357 357 356 355 354 353 352 351 351 352 351 352 352 352 352 352 351 352 352 352 350 349 348 349 349 349 350 351 351 351 350 349 348 346 343 339 337 335 335 336 336 336 335 335 335 336 337 339 345 351 352 352 353 352 353 353 353 352 351 351 351 352 352 352 352 353 354 354 354 353 353 353 352 349 348 347
330 329 326 330 333 331 332 337 341 345 349 349 347 348 351 354 356 355 353 353 356 357 357 356 355 354 354 352 352 352 352 352 352 352 352 353 352 351 351 352 352 352 350 349 348 348 349 350 350 350 350 350 350 349 347 346 343 341 339 336 336 336 336 334 334 335 336 340 343 348 351 351 352 353 353 352 353 353 351 350 351 352 353 352 353 353 353 354 354 354 353 354 353 351 349 345 344
326 327 325 327 330 329 331 334 338 345 349 350 349 348 349 354 357 355 355 353 355 357 356 355 355 354 354 353 353 353 352 353 352 352 352 352 352 352 352 352 353 352 351 349 348 348 349 349 349 350 350 350 350 349 349 348 347 345 343 341 339 338 336 334 334 334 336 343 349 350 351 351 352 353 353 352 352 352 351 351 351 352 353 353 353 353 354 354 354 354 354 354 353 350 346 340 340
330 329 328 327 326 327 331 333 336 344 348 349 350 347 348 356 360 357 354 353 355 356 355 355 355 355 354 354 353 353 353 352 352 351 352 352 352 352 352 353 353 352 352 350 349 348 348 349 349 350 349 350 350 350 350 349 349 348 346 345 343 341 339 335 333 333 336 345 351 351 351 352 352 353 353 352 352 351 352 351 352 353 353 353 353 353 354 354 354 354 354 353 353 349 342 338 340
330 329 328 328 327 326 333 333 335 341 345 346 349 347 348 355 359 357 355 355 355 355 356 356 355 355 354 354 353 353 353 352 351 351 352 352 352 352 352 353 353 352 352 351 350 349 349 349 349 350 349 350 350 350 350 350 349 349 348 347 345 344 342 339 333 332 338 346 351 351 351 351 352 352 353 353 352 352 352 352 353 353 353 353 353 354 354 354 354 355 354 354 353 347 340 338 341
327 327 327 327 327 327 332 334 332 337 341 344 348 348 347 351 357 357 355 355 356 355 355 355 355 355 353 354 353 352 352 351 351 351 352 352 352 352 352 352 353 352 352 351 350 350 350 350 350 350 350 350 349 349 349 349 349 348 347 347 346 346 344 340 334 333 342 349 350 351 351 352 352 352 353 353 353 352 352 353 353 353 353 353 353 354 354 355 355 355 354 354 352 347 340 338 341
326 326 324 323 327 327 329 332 332 334 337 342 349 346 344 346 353 357 356 356 355 354 354 354 354 354 354 353 353 352 352 352 351 350 350 352 352 352 352 352 352 352 352 351 351 351 350 350 350 350 350 350 350 349 349 349 349 348 347 347 347 347 345 342 335 334 344 349 349 351 352 352 352 352 353 353 353 353 352 353 353 353 352 351 353 354 355 355 355 355 354 354 352 348 342 339 340
326 327 323 321 326 325 325 330 331 331 333 341 348 345 344 346 351 358 356 355 356 353 353 353 352 353 353 352 352 351 352 352 352 350 350 351 351 352 352 352 352 352 352 351 351 350 350 350 350 350 350 350 350 349 349 349 349 349 349 348 348 347 346 344 339 338 345 350 349 351 351 353 353 353 353 353 353 353 352 352 353 354 353 352 353 354 354 355 355 355 354 355 353 349 343 340 341
326 327 325 323 325 325 325 330 331 331 332 337 339 331 336 347 352 358 357 354 356 354 354 354 353 353 351 352 352 351 351 351 351 351 350 351 351 352 352 352 352 352 352 352 351 350 350 350 350 350 350 350 350 350 349 349 350 350 350 350 349 349 348 347 346 345 348 351 350 350 351 353 353 353 353 352 353 353 353 352 352 354 353 352 352 353 354 355 355 355 354 355 353 350 346 340 340
325 326 327 326 327 326 326 328 326 325 327 334 330 319 328 352 353 352 356 357 357 356 356 355 354 353 352 352 352 350 350 350 350 351 350 350 351 351 352 352 352 352 352 352 351 350 351 350 350 350 350 351 350 350 350 350 350 351 351 351 350 350 350 350 350 349 350 351 351 350 351 352 352 352 352 352 352 352 352 351 351 352 352 351 352 353 354 354 355 355 354 355 354 351 348 343 341
323 327 328 327 327 325 324 325 323 322 325 334 330 321 329 348 350 349 354 358 359 356 357 356 354 354 353 352 352 350 350 349 350 350 349 350 350 351 351 352 352 353 352 352 351 351 351 350 350 350 350 350 351 351 350 351 351 351 351 351 351 350 350 350 350 349 350 351 352 352 352 352 352 352 352 353 353 352 352 351 349 348 348 350 352 353 353 353 355 356 355 356 355 353 350 347 344
323 329 329 327 327 325 324 324 321 324 327 327 330 329 326 330 341 351 353 354 359 358 356 356 354 354 353 352 352 351 350 350 350 350 350 350 350 351 351 352 352 352 352 352 351 352 351 351 350 350 351 350 351 351 350 351 351 351 351 351 351 350 351 350 349 350 351 352 353 352 352 352 353 352 352 353 353 353 352 351 350 347 345 347 351 352 352 353 354 355 356 356 356 355 352 350 347
327 330 329 328 327 326 326 323 321 323 323 318 322 327 323 325 342 354 352 351 354 357 357 355 355 354 353 353 351 351 350 349 350 349 350 349 349 350 351 351 352 352 353 353 352 352 351 351 351 351 351 351 351 351 351 351 351 351 351 351 351 351 351 351 350 350 352 353 353 353 353 353 353 352 352 352 353 353 352 352 352 349 346 345 349 351 352 353 354 355 355 355 355 355 353 351 350
329 328 328 328 326 326 327 325 322 320 320 318 320 321 319 325 335 341 347 349 348 353 355 353 354 354 353 353 351 350 350 350 350 349 349 350 349 350 350 351 351 352 353 353 353 353 352 352 351 351 351 351 351 351 351 351 351 351 351 352 352 352 352 352 351 351 351 352 353 354 353 354 354 353 352 353 352 352 352 352 351 351 349 345 345 348 351 352 353 354 354 353 354 354 353 351 350
328 328 326 325 327 329 328 327 322 319 319 318 319 320 319 322 327 331 342 350 349 349 352 351 352 352 352 352 351 350 349 350 349 349 349 349 349 349 350 351 351 351 352 352 353 353 352 352 352 352 351 352 352 351 351 351 351 351 350 351 351 351 352 352 351 351 351 352 353 354 354 354 354 353 353 352 352 352 352 352 351 351 351 349 345 344 346 348 350 352 352 352 354 355 354 352 351
327 330 326 323 326 325 322 323 322 319 320 319 319 321 319 318 324 331 340 349 351 347 348 350 349 350 352 351 351 350 348 349 350 350 349 349 349 350 350 350 350 351 352 352 353 353 353 352 352 352 352 352 352 352 352 351 352 351 351 351 351 351 352 352 351 351 352 352 353 354 354 353 353 353 353 353 352 352 351 351 352 351 351 351 348 345 342 344 347 350 351 352 355 355 355 353 351
327 328 325 323 324 323 321 321 321 321 323 325 323 321 319 318 323 330 336 341 346 347 346 348 348 349 350 350 350 350 348 349 349 349 350 349 349 349 349 350 350 351 351 351 353 353 353 353 353 352 352 352 353 353 352 352 351 351 351 351 351 351 351 351 352 351 352 352 352 353 353 353 353 353 353 353 351 351 351 351 351 351 351 351 351 349 345 343 345 347 348 352 356 356 356 354 352
326 324 323 323 323 324 324 323 322 323 325 326 322 321 319 320 324 328 330 332 340 346 346 345 347 347 347 348 349 349 349 348 348 349 348 349 350 349 349 349 350 350 351 351 352 352 353 353 353 353 353 353 353 353 353 353 353 352 352 351 351 351 351 351 352 352 352 352 352 353 353 353 353 353 353 352 351 351 350 351 351 351 351 351 351 351 348 346 346 346 348 352 355 356 356 355 354
326 327 326 323 324 326 326 325 323 322 324 323 319 321 320 320 329 333 327 326 333 340 345 345 346 346 346 347 348 348 349 348 349 349 349 349 349 348 348 349 349 350 350 351 351 352 353 353 353 353 353 353 353 353 354 353 353 353 352 352 352 351 350 351 352 352 352 352 352 353 352 353 352 352 353 352 352 351 350 350 350 350 351 351 351 352 351 349 347 347 348 351 353 355 356 357 356
325 328 325 322 326 327 325 327 325 319 321 320 318 323 326 328 336 335 328 327 328 334 343 345 345 346 347 347 348 347 348 348 348 348 349 349 348 347 348 348 349 349 349 350 351 351 352 353 353 353 352 353 353 353 354 354 353 354 353 352 352 352 351 351 351 352 352 352 352 352 352 352 352 351 352 352 352 351 350 351 351 351 351 351 351 352 352 351 348 348 349 351 352 353 356 357 357
326 325 323 324 328 326 321 323 325 318 318 320 318 320 323 324 329 330 327 329 328 332 338 342 345 347 348 348 347 346 347 347 348 349 349 349 348 347 347 348 348 349 349 350 350 351 352 352 352 352 353 353 353 353 354 354 354 354 353 353 352 352 351 351 351 352 352 352 352 352 352 352 352 352 351 352 352 351 351 350 351 351 351 351 351 352 353 352 350 349 349 351 352 353 355 357 357
326 322 323 325 326 327 322 320 321 318 319 324 321 317 316 316 323 332 332 330 331 332 335 341 344 347 348 347 346 346 346 347 348 349 349 349 348 347 346 347 348 349 349 349 350 351 352 352 352 352 352 353 352 353 354 354 354 354 354 353 353 352 352 352 352 351 351 352 352 352 351 351 351 351 350 350 350 351 351 350 351 351 350 351 350 351 352 353 352 350 350 351 352 353 355 356 357
326 325 326 326 323 323 322 321 322 321 322 324 321 318 319 317 321 329 329 331 333 333 335 339 343 346 347 345 346 346 346 346 347 348 349 348 348 347 346 347 347 348 349 349 350 350 351 352 352 352 352 352 352 352 353 353 353 354 354 353 353 353 353 352 352 351 351 351 351 352 352 351 351 351 350 349 349 350 350 351 350 351 351 351 350 351 351 353 353 352 351 352 352 353 354 355 355
325 326 326 328 326 321 321 323 322 322 325 325 320 318 320 323 327 330 328 331 333 330 333 337 339 344 346 344 345 346 346 347 348 347 348 348 347 347 346 346 346 347 348 349 349 350 351 351 352 352 352 352 352 353 353 353 353 353 353 353 353 353 353 352 352 352 352 351 351 351 351 351 351 350 350 350 350 349 349 350 350 350 351 351 351 350 351 352 353 353 353 352 352 353 354 354 354
323 322 321 323 324 322 322 321 320 322 326 326 321 318 322 332 335 332 330 331 330 330 333 333 335 339 343 345 344 345 346 347 347 347 347 348 347 347 346 346 346 346 347 348 349 350 350 351 351 352 351 351 352 352 353 353 353 353 354 353 353 353 352 352 352 352 351 351 352 352 351 351 351 350 350 350 350 349 349 349 350 350 351 350 351 350 351 352 353 353 354 353 353 354 354 354 354
321 321 321 322 321 321 322 321 319 319 322 327 324 318 324 337 335 330 329 329 326 328 330 331 333 336 341 344 344 345 347 346 346 347 347 347 348 347 346 347 346 346 347 347 348 349 350 351 351 351 351 352 352 352 353 353 353 353 354 353 353 353 352 352 352 352 352 351 351 352 351 351 351 350 351 350 350 350 349 349 350 350 350 351 351 351 350 352 353 353 353 354 354 354 354 355 355
Wind_Speed
14 14 16 14 15 12 7 4 1 1 2 2 2 1 1 2 2 2 3 2 1 0 0 6 9 5 3 5 6 4 3 3 2 2 2 2 19 30 25 25 26 26 28 25 23 22 21 21 20 21 20 20 20 19 19 18 19 19 19 19 18 18 17 17 16 16 16 16 16 15 15 15 15 14 14 13 13 13 12 12 11 11 11 10 10 11 11 11 10 10 10 10 10 11 11 12 12
16 16 16 15 14 9 2 1 1 1 1 2 2 1 1 1 2 2 3 2 2 1 2 8 8 5 5 8 8 5 5 4 3 3 2 12 24 24 25 27 27 28 28 25 23 22 21 21 20 20 20 19 19 19 19 18 19 19 19 18 18 17 17 17 16 16 15 15 15 15 15 14 14 14 13 13 13 12 11 11 10 10 10 10 10 10 10 10 10 10 10 10 10 10 11 11 11
18 17 18 14 9 4 0 1 1 1 1 2 3 1 2 1 2 3 3 3 3 4 6 8 6 4 5 6 3 3 3 3 5 4 6 19 20 18 27 28 27 28 26 26 25 23 21 20 20 20 19 19 19 19 18 18 18 18 18 17 17 17 17 16 16 15 15 15 14 14 14 14 14 13 13 12 12 11 10 10 9 10 10 9 9 10 10 10 10 10 10 9 10 10 10 10 10
19 18 19 12 3 2 1 1 1 1 1 2 3 2 3 2 4 5 4 4 4 5 6 6 4 3 3 4 1 3 3 3 5 5 8 15 18 25 30 28 28 26 25 27 26 24 21 20 20 20 20 19 19 18 18 18 18 17 17 17 17 17 16 15 15 15 14 14 13 13 13 13 13 12 12 12 11 10 10 9 9 10 9 9 10 10 9 9 10 9 9 9 9 10 9 9 9
20 17 17 9 0 1 1 1 0 1 3 2 1 2 2 3 5 5 4 4 2 3 4 4 3 2 3 4 1 2 4 5 6 7 11 14 21 32 31 30 29 26 26 27 26 24 22 20 20 20 20 19 18 18 18 18 17 17 16 17 16 16 15 15 15 14 14 13 13 13 13 13 12 12 12 11 10 9 9 9 9 10 9 8 9 9 8 8 9 9 9 9 9 9 9 9 9
18 12 11 7 2 1 1 1 1 2 4 3 2 2 3 4 6 6 6 4 2 3 4 4 4 4 4 3 3 3 4 7 7 10 15 19 27 33 32 32 29 27 27 27 26 24 22 20 20 20 19 19 18 18 18 17 16 16 16 16 15 15 15 14 14 13 13 13 13 13 13 12 12 12 12 11 10 9 9 9 9 10 10 8 8 8 8 8 8 9 8 9 9 9 8 8 9
17 8 4 5 2 1 1 1 2 2 4 3 3 2 3 4 5 7 7 5 3 3 4 4 7 7 3 1 3 3 3 6 9 13 18 24 31 32 32 32 29 28 27 27 26 24 23 20 20 20 19 18 18 18 17 17 16 16 16 15 15 14 14 14 13 13 13 13 13 13 13 13 12 12 12 12 11 10 9 9 10 10 10 9 9 9 8 8 8 8 8 8 8 9 8 8 9
15 5 1 2 1 1 1 3 3 2 3 2 2 2 4 5 5 6 6 4 3 3 4 6 6 6 3 2 3 4 5 9 13 17 22 29 33 32 32 32 30 29 27 27 26 24 23 20 20 19 19 18 18 18 17 16 15 16 16 15 15 14 14 14 13 13 13 13 13 12 13 13 12 12 12 12 12 11 10 10 11 11 11 10 9 9 8 8 8 8 7 8 8 9 8 7 8
9 4 0 1 1 1 2 3 3 3 3 1 1 2 4 5 4 4 5 4 4 5 5 5 4 5 4 5 5 3 7 13 17 21 26 31 33 32 31 31 31 30 28 27 26 24 22 20 19 18 18 18 18 17 17 16 15 15 16 15 15 14 14 13 13 13 12 12 13 13 12 12 12 12 11 11 11 11 11 10 11 10 11 10 9 9 9 8 8 7 7 7 7 8 8 7 7
4 2 0 0 0 2 3 2 3 2 2 1 1 1 4 5 4 4 5 6 6 6 5 5 5 6 6 6 4 3 9 18 22 23 27 30 32 32 31 31 31 31 29 27 26 24 22 20 19 18 18 18 17 17 16 16 14 15 15 15 14 14 14 13 13 13 12 12 13 13 12 11 11 11 11 11 11 10 10 10 10 10 10 9 8 8 8 8 7 7 7 6 7 7 7 7 6
2 2 1 1 0 2 2 3 3 2 2 1 1 1 3 5 5 3 5 7 6 6 5 5 6 8 8 5 3 6 16 22 24 25 28 30 31 31 30 30 30 31 29 28 26 24 22 20 18 18 18 17 17 17 16 15 14 14 15 15 14 14 13 13 13 12 12 12 12 12 11 10 10 11 11 10 10 10 9 9 9 9 9 8 8 8 8 8 7 7 6 6 6 6 6 5 6
1 2 1 1 2 2 2 3 3 2 1 1 0 1 3 5 4 3 6 7 6 7 4 4 6 6 7 4 3 9 18 21 23 26 28 29 29 29 29 29 30 30 29 27 26 25 22 20 19 18 18 17 17 16 16 15 14 13 14 14 14 13 13 12 12 12 12 12 11 11 10 10 10 10 10 10 10 9 9 8 8 8 8 8 8 8 7 7 7 7 6 6 5 5 5 4 5
1 1 2 1 2 2 2 3 3 0 2 1 2 2 4 4 4 4 6 7 7 6 2 5 9 5 5 5 5 9 13 19 24 26 27 28 27 28 28 29 30 29 28 27 26 24 23 21 20 19 18 17 17 16 15 15 14 13 13 13 13 12 12 12 11 11 11 11 11 10 10 9 9 9 9 9 9 9 8 8 8 7 7 7 7 7 7 7 7 7 6 6 5 5 4 3 4
1 1 1 1 1 1 2 2 2 1 1 2 3 4 4 2 3 4 7 8 6 5 5 8 10 7 6 6 7 6 11 21 25 25 26 26 26 27 27 27 28 29 27 26 25 24 23 21 21 20 18 18 17 16 15 15 14 13 13 12 12 12 11 11 11 11 10 10 10 9 9 9 8 8 8 8 8 8 8 7 7 7 7 7 7 7 7 7 7 7 6 6 5 5 4 3 3
1 1 1 2 1 2 2 3 2 2 2 3 5 4 5 1 2 5 6 8 3 5 9 8 5 4 6 8 7 8 16 25 26 25 26 25 25 25 25 26 26 27 26 25 24 23 23 22 21 20 19 19 18 16 16 15 14 13 12 12 12 11 11 11 10 10 9 9 9 9 8 8 7 7 8 7 7 6 6 6 6 6 6 6 6 6 6 6 7 6 6 5 5 5 4 4 4
1 1 0 2 2 1 2 3 2 3 3 3 5 6 6 1 1 3 2 4 5 6 7 5 4 2 7 6 8 17 25 28 27 26 26 25 25 24 24 24 24 25 25 24 24 23 23 22 22 21 20 19 18 17 16 15 14 13 12 12 11 11 10 10 10 9 9 8 8 8 8 7 7 7 7 6 6 5 5 6 6 6 5 5 5 5 5 5 5 5 5 5 4 4 4 4 4
0 1 1 3 2 2 2 4 3 3 3 5 6 7 7 1 2 2 1 5 8 8 3 3 1 2 7 8 16 27 30 29 28 27 26 25 24 23 23 23 24 24 24 24 24 24 23 23 23 22 21 20 19 18 17 16 14 13 12 11 11 10 10 10 9 9 8 8 8 7 7 7 6 6 6 5 5 4 5 5 5 5 5 4 5 4 4 4 4 4 4 4 3 3 3 3 3
2 1 2 3 3 3 3 4 3 3 4 6 8 8 8 6 4 2 2 6 8 6 3 5 5 6 11 18 27 29 29 30 28 27 24 23 22 22 22 24 24 25 25 24 24 24 23 23 23 23 22 21 20 19 18 17 15 14 13 12 11 10 10 9 9 9 8 8 8 7 6 6 6 5 5 5 4 4 4 4 4 4 4 3 3 3 4 4 3 3 2 3 3 2 2 2 2
3 2 2 4 4 4 3 3 2 1 3 6 7 7 7 8 6 4 4 6 8 6 4 7 9 10 15 22 28 28 29 28 27 26 23 22 22 21 22 23 24 24 25 25 24 24 24 23 24 24 23 22 21 20 19 17 16 15 14 13 12 11 10 10 9 9 8 8 8 7 6 5 5 5 5 4 3 3 3 4 3 4 3 2 3 2 3 3 2 2 2 2 2 2 2 2 2
3 2 3 6 5 5 6 5 3 0 5 8 7 6 5 7 7 4 5 8 8 7 7 8 10 12 15 18 23 26 27 26 25 24 22 22 22 22 22 23 24 25 26 26 25 25 25 24 24 25 24 22 22 21 20 18 17 15 15 13 13 12 11 10 10 9 9 8 8 7 6 5 5 4 4 4 3 2 2 3 3 3 3 3 3 3 2 2 1 1 1 1 1 1 1 1 2
3 4 5 4 3 5 7 6 2 2 6 8 7 6 5 7 6 6 9 8 6 8 11 11 14 17 18 18 21 25 24 23 24 23 22 22 21 22 22 23 23 24 26 25 25 26 26 25 25 25 25 24 22 22 21 20 18 17 16 15 14 13 12 11 11 10 9 9 8 7 6 5 4 4 4 4 3 3 2 2 2 3 4 4 3 3 2 1 1 0 1 1 1 0 1 1 2
2 7 8 6 2 3 6 5 2 4 5 6 8 7 7 7 5 7 12 9 6 9 11 12 15 19 21 21 21 22 21 20 22 23 23 22 22 22 23 24 24 24 25 25 26 26 26 26 26 26 26 25 23 23 22 21 20 18 17 16 15 14 13 12 12 11 10 9 8 7 6 6 5 5 4 4 4 3 2 1 2 2 3 3 3 2 2 1 1 1 1 1 1 1 1 1 1
4 6 7 8 6 7 6 5 4 4 6 6 7 7 7 8 6 8 13 10 3 5 10 12 14 18 22 22 20 20 19 19 21 24 25 25 25 24 25 26 26 26 26 26 26 26 27 26 27 26 26 26 25 24 22 22 21 19 18 17 16 15 14 13 12 12 11 10 9 8 7 6 6 5 5 4 4 3 3 2 2 2 1 1 1 1 1 1 1 2 1 1 1 2 2 1 1
6 7 7 7 7 10 8 6 8 2 7 6 5 6 9 11 7 7 12 8 5 9 11 13 14 18 21 20 19 20 20 20 22 25 26 26 26 26 26 26 26 26 26 26 26 26 27 27 27 27 27 28 26 25 24 23 22 20 19 18 17 16 15 14 13 12 11 11 9 9 8 7 7 6 6 5 4 3 3 3 3 3 2 1 2 1 1 1 1 1 1 1 1 2 3 2 2
10 12 8 5 6 8 8 6 8 5 5 4 5 7 11 13 7 8 13 7 7 12 14 15 16 17 18 19 20 18 17 19 21 24 24 24 24 24 24 25 26 26 27 27 27 27 28 28 28 29 28 29 28 27 25 24 23 22 20 20 18 17 16 15 13 13 12 12 10 10 8 8 7 7 6 5 4 4 3 3 3 3 2 2 2 2 1 1 1 1 1 2 3 3 3 2 3
11 14 8 5 6 6 6 7 7 6 4 5 6 7 8 8 6 6 11 8 10 13 15 15 17 17 16 17 19 18 17 19 21 24 24 24 25 24 25 26 27 28 28 28 28 28 28 28 29 29 29 29 29 28 27 26 25 23 22 21 20 19 17 15 14 14 13 12 11 10 9 8 7 7 6 5 5 5 4 4 4 3 3 3 3 2 2 2 2 2 2 4 4 4 3 3 4
6 10 9 10 11 9 8 8 8 6 4 7 9 8 7 5 4 5 7 10 13 14 16 16 17 17 17 16 16 17 17 20 24 25 23 23 25 25 26 27 28 29 29 28 29 29 29 29 29 30 30 29 29 29 29 28 27 25 23 22 21 20 18 16 15 14 13 13 12 11 10 9 8 7 7 6 6 6 5 5 4 4 4 3 3 3 3 2 2 2 3 4 4 3 2 2 3
3 3 7 11 9 9 9 9 9 5 4 9 11 9 5 4 6 7 5 12 16 16 16 17 17 16 16 17 15 14 14 20 25 24 23 24 26 27 27 29 30 30 31 31 31 30 30 30 30 30 30 30 29 30 30 30 28 27 25 23 22 21 19 17 16 15 14 13 12 12 11 10 9 8 8 7 7 7 6 6 5 5 4 3 3 3 3 3 3 2 3 4 3 3 2 1 2
6 4 6 9 6 8 10 8 8 5 5 9 9 5 5 7 9 7 7 12 15 17 16 16 16 15 15 15 14 12 13 19 23 23 25 27 28 29 29 31 32 31 32 32 31 30 31 31 31 30 30 30 30 30 31 30 30 28 26 24 23 22 20 18 17 16 15 13 12 12 11 11 10 9 9 8 8 7 7 7 6 6 4 4 4 3 4 4 4 3 4 5 5 4 2 1 2
5 5 5 6 5 8 8 6 7 7 6 9 10 3 6 9 9 8 10 13 14 14 15 15 14 13 13 14 13 13 14 17 20 23 27 28 28 30 30 31 33 32 31 31 31 32 32 32 31 31 30 31 31 30 31 30 30 29 28 26 24 23 21 20 18 16 15 14 13 12 12 12 11 10 9 9 8 8 8 8 8 7 5 5 5 5 4 4 5 4 4 5 4 3 2 2 3
3 3 3 2 1 5 5 4 7 6 4 10 12 5 6 8 8 10 12 15 17 15 14 14 13 13 13 13 13 13 14 17 21 25 27 28 28 29 29 30 32 32 31 32 33 33 33 32 32 31 31 32 32 32 31 31 31 30 29 28 26 25 23 21 19 17 16 15 14 13 13 12 12 11 10 10 9 10 10 10 9 7 6 6 6 6 5 5 5 5 4 4 4 2 1 2 3
0 3 3 2 4 6 5 3 8 8 4 10 13 5 5 7 7 12 13 15 17 15 15 14 15 15 14 13 13 13 13 17 22 25 27 28 28 29 30 30 32 33 33 33 34 33 33 33 33 32 32 33 33 33 32 32 31 30 29 28 28 26 25 23 21 18 17 16 15 15 14 13 12 12 11 11 11 11 11 11 10 8 7 7 6 6 6 6 5 5 4 5 4 2 1 1 3
2 3 4 2 6 5 4 3 7 10 4 7 12 5 2 5 8 12 13 16 16 14 15 15 15 15 15 13 13 13 12 14 18 22 27 29 29 30 30 31 33 34 34 34 34 35 34 34 33 33 33 34 34 33 33 32 32 31 30 29 28 27 26 25 22 19 18 17 17 16 15 14 13 13 12 12 11 11 11 11 10 9 8 8 7 7 7 6 6 6 5 5 5 2 1 3 5
3 2 4 3 5 4 2 4 5 8 7 7 11 9 5 4 9 13 14 16 15 13 15 16 15 14 14 13 12 13 13 14 15 21 28 29 29 30 31 31 32 33 33 34 35 36 36 35 34 34 34 34 34 33 33 32 32 31 30 29 29 28 28 26 23 21 19 18 18 17 16 15 14 14 14 13 12 11 11 11 10 9 8 8 8 8 8 7 7 7 5 5 4 2 2 4 5
5 4 3 3 4 5 4 3 3 6 7 8 10 12 10 4 8 14 15 16 16 15 16 15 15 15 14 13 13 13 14 15 16 22 28 29 30 30 30 31 31 32 33 33 34 35 35 35 34 34 33 33 33 33 32 31 31 30 30 29 28 28 28 27 25 23 20 19 19 18 17 16 15 15 15 14 13 11 12 11 10 9 9 9 9 9 8 8 8 7 5 4 4 2 3 4 6
7 6 4 4 5 6 5 4 3 5 5 7 9 12 12 6 8 12 14 15 15 14 13 13 13 14 13 13 13 13 15 16 18 24 29 29 30 30 30 31 31 32 33 33 33 34 34 34 34 33 33 33 33 31 30 29 29 29 29 29 29 29 30 29 27 25 22 21 20 19 18 17 16 16 17 16 14 13 13 12 11 10 10 10 10 10 9 8 8 8 6 4 3 3 4 3 5
4 4 4 5 5 6 5 3 3 5 4 7 9 12 13 9 10 13 13 14 13 12 12 12 13 13 13 15 14 15 16 15 17 24 28 29 30 30 30 30 31 31 32 33 33 34 35 35 34 35 35 34 33 33 32 31 31 30 30 31 31 31 31 30 29 27 25 23 22 20 19 18 17 17 18 18 17 16 15 13 12 12 11 11 10 10 9 8 8 8 7 4 3 3 3 2 5
3 2 3 4 5 6 6 4 2 3 3 5 7 9 11 10 9 11 13 14 14 14 15 15 16 15 13 15 17 17 14 11 14 19 24 29 29 30 31 30 31 32 32 34 35 36 36 36 36 36 35 35 36 37 35 35 35 34 33 33 32 31 30 31 30 29 26 24 23 21 19 18 18 18 19 19 19 18 17 16 15 14 13 12 11 10 9 8 8 8 7 5 4 4 3 3 7
7 4 3 4 4 3 6 6 2 2 3 4 5 7 10 10 9 11 14 16 16 16 18 18 18 17 15 16 17 16 13 12 14 16 21 27 29 30 31 30 32 33 33 35 36 36 36 36 37 36 35 36 38 38 38 37 36 35 33 32 30 29 28 29 29 28 26 25 23 21 20 19 18 19 20 20 20 20 19 18 17 16 14 13 12 11 10 9 9 9 8 6 5 5 4 5 9
7 6 5 5 4 3 4 5 1 2 4 3 4 4 7 6 5 9 15 16 15 16 18 17 16 19 19 19 16 15 16 15 16 16 17 23 27 30 31 30 32 32 33 34 35 36 36 37 37 36 37 37 38 38 39 38 35 32 30 28 27 25 24 24 25 26 26 25 24 23 22 21 19 19 20 21 21 21 21 20 19 18 16 14 13 12 11 10 9 9 9 8 6 7 7 7 11
8 8 8 6 5 4 3 3 3 3 3 1 4 1 6 4 5 7 11 11 10 11 13 12 12 15 14 13 13 14 16 15 16 17 17 19 24 29 31 31 31 32 33 34 36 37 37 37 38 38 38 37 37 38 38 36 31 28 27 24 22 21 20 20 21 24 25 25 25 25 24 23 20 19 20 22 21 21 21 21 22 21 19 17 14 13 12 11 10 9 9 8 7 8 9 9 12
6 9 10 9 7 5 2 4 3 4 4 3 4 2 6 4 6 9 8 9 11 9 11 14 14 13 11 11 13 15 15 14 15 17 18 18 22 26 30 31 31 32 34 35 37 38 37 38 39 38 37 37 37 37 36 34 32 29 28 25 23 22 21 20 23 26 27 27 27 27 26 24 22 20 20 22 21 20 20 19 21 22 21 19 16 14 13 12 11 10 9 9 8 8 10 10 12
7 8 9 9 7 4 2 0 1 1 4 5 1 4 5 4 4 9 7 11 15 12 13 17 15 12 12 14 14 14 15 14 14 15 16 17 21 24 27 31 33 33 35 36 36 37 38 37 38 38 38 37 36 35 35 34 33 31 30 30 28 27 25 26 28 30 30 29 28 27 26 25 23 21 21 22 22 21 19 17 18 20 21 20 18 16 15 13 12 10 9 9 9 8 10 11 11
7 5 8 8 7 6 5 3 4 3 3 5 1 4 3 4 6 7 7 11 14 13 16 17 14 14 16 16 14 15 16 16 14 15 16 17 20 24 27 32 35 35 35 35 35 37 38 38 38 39 38 36 36 35 35 35 34 33 32 31 30 29 29 29 29 29 29 28 27 26 26 25 24 22 21 22 22 22 19 17 17 18 20 21 20 18 16 15 13 12 10 10 10 9 10 12 11
6 6 9 8 8 8 6 4 5 2 2 6 4 5 3 5 6 4 5 9 11 14 18 17 15 17 18 17 17 16 16 16 15 16 17 17 21 26 30 32 33 34 34 35 36 37 38 38 38 38 38 36 36 36 36 37 37 35 34 32 30 30 29 27 25 25 26 27 27 27 26 25 24 23 23 22 23 23 21 19 18 18 19 21 22 21 18 16 14 13 12 11 11 11 11 12 12
4 6 7 6 7 6 5 6 5 2 4 9 7 6 4 5 6 4 2 7 11 13 15 15 16 18 18 18 18 17 14 14 15 16 16 18 23 29 31 31 32 33 34 35 36 36 37 38 37 38 38 36 36 36 37 38 38 36 34 34 32 30 28 25 23 24 25 26 26 27 27 26 25 25 25 24 23 24 23 21 20 19 18 20 22 23 20 18 16 15 13 12 11 11 12 13 14
5 6 3 3 2 3 4 3 3 3 7 11 9 8 6 5 5 5 4 6 10 10 11 12 14 16 17 16 16 15 13 13 15 15 15 17 23 28 29 30 32 33 34 34 35 36 36 37 37 37 38 37 36 37 38 38 38 37 35 35 34 31 28 25 25 24 25 26 27 28 29 28 27 26 26 25 24 24 24 23 23 20 19 19 21 22 22 20 19 17 14 13 12 12 12 13 14
6 5 4 1 2 2 2 0 2 6 9 9 8 9 9 8 6 6 7 8 10 11 12 13 15 17 17 16 16 15 15 15 14 14 13 14 18 23 26 29 31 33 33 33 35 35 36 37 37 37 37 37 37 37 38 38 38 37 37 36 35 33 30 28 28 27 27 28 29 29 29 29 28 27 26 26 25 25 25 24 24 23 21 20 20 21 22 22 20 18 16 15 14 13 12 13 14
7 5 6 5 2 1 4 4 3 7 7 4 6 8 7 9 8 9 10 10 11 12 12 14 17 19 19 18 17 15 15 15 14 14 14 14 15 18 22 27 30 32 33 34 35 35 35 36 37 37 37 38 37 37 38 38 38 38 38 36 35 34 32 31 30 29 29 30 30 29 29 29 28 28 27 27 27 26 25 25 24 24 23 21 20 20 21 22 21 20 18 16 15 14 13 14 15
8 7 6 6 5 4 6 6 4 5 6 4 5 6 5 4 6 13 16 15 13 11 12 14 16 18 19 18 17 15 15 15 14 14 14 15 16 17 21 27 29 31 34 35 36 36 36 36 37 38 37 38 38 38 38 38 39 39 39 37 36 34 33 33 32 32 31 30 30 30 30 30 30 30 30 30 29 27 26 25 25 24 24 22 20 19 20 21 21 20 19 17 16 15 14 14 15
8 8 6 5 5 5 5 4 4 4 4 5 3 5 5 4 5 12 16 16 13 11 12 13 14 15 14 12 12 13 13 14 13 14 15 17 17 19 23 27 29 31 34 35 36 37 37 36 38 39 38 39 39 38 38 39 39 40 39 37 36 35 35 35 33 33 32 32 31 31 31 31 31 32 32 31 29 28 27 26 25 25 24 23 22 20 20 20 21 21 20 18 17 16 15 15 15
7 7 6 6 6 5 3 4 5 3 2 5 3 4 5 4 5 6 9 12 11 12 13 12 14 13 10 9 11 13 14 14 14 14 16 17 17 20 24 27 29 31 34 35 36 38 38 37 38 40 40 39 40 39 39 39 40 39 38 38 37 36 36 35 34 33 33 33 33 33 33 33 33 32 32 31 30 29 28 26 26 26 25 24 23 21 20 20 20 21 20 20 19 18 17 17 16
4 6 8 6 5 6 3 4 1 3 4 5 3 4 4 2 6 5 4 8 10 11 12 13 14 11 10 11 13 15 15 15 16 16 17 16 16 20 25 28 29 31 34 37 38 39 40 39 39 40 39 39 40 40 39 39 39 38 38 38 37 37 36 35 35 35 34 34 33 33 33 33 33 32 32 31 31 30 29 27 26 26 26 25 24 23 22 21 21 21 21 21 20 19 18 18 18
5 6 8 5 4 4 4 4 2 2 6 4 2 6 5 4 5 3 3 8 10 11 12 13 13 10 11 12 13 15 16 17 18 18 17 16 15 17 23 27 31 34 36 37 39 39 40 40 40 40 40 40 40 41 40 39 39 37 37 37 38 38 37 37 37 36 34 33 32 32 32 32 33 32 31 31 31 30 30 28 27 26 27 26 25 24 23 22 21 22 22 22 21 19 19 19 19
7 5 8 7 3 5 6 4 5 5 5 4 3 4 4 6 6 3 6 10 11 12 12 11 12 10 11 13 13 15 15 15 16 16 14 14 15 17 23 28 31 34 36 36 38 38 38 39 40 41 42 42 41 40 40 39 38 37 37 37 38 38 38 37 36 34 33 33 33 33 33 33 33 32 31 31 31 30 30 29 29 28 28 27 26 25 25 24 23 23 23 23 22 21 21 21 21
7 5 7 6 4 5 6 4 4 4 4 3 3 3 3 6 6 8 11 12 12 13 12 11 13 13 12 13 13 13 14 14 15 15 15 16 17 21 28 31 32 34 34 34 36 36 37 38 38 39 40 41 41 40 40 39 38 37 36 36 37 37 38 37 35 34 34 34 34 33 33 33 32 32 31 31 30 30 30 30 30 29 29 29 28 27 27 26 25 25 24 24 23 23 23 23 22
4 4 5 5 3 2 4 3 3 4 4 3 3 4 5 5 5 10 13 13 13 14 13 12 13 13 13 14 13 13 13 14 15 15 16 18 18 21 28 31 31 31 31 32 35 36 37 37 38 39 39 38 39 39 39 39 38 37 36 36 37 37 37 37 36 35 35 35 34 33 33 33 32 32 32 31 31 31 31 30 30 30 30 30 30 30 29 28 27 27 26 26 25 25 25 24 24
2 3 3 6 5 3 4 5 3 4 4 4 3 4 6 6 4 8 11 12 13 14 14 13 13 14 14 14 14 14 14 15 16 16 16 17 17 18 23 27 28 29 31 33 35 36 36 36 37 38 38 38 39 39 39 39 38 37 38 37 37 37 37 36 36 35 35 35 34 33 33 32 32 32 32 32 32 32 32 31 30 30 30 31 31 30 30 29 29 28 28 27 27 27 26 26 26
Wind_Direction
154 157 162 167 161 164 178 207 239 180 245 282 262 240 247 187 124 129 128 115 79 77 109 124 129 129 111 116 131 106 49 125 126 133 180 176 149 152 154 154 151 147 148 145 138 136 139 140 139 138 135 132 129 127 128 126 125 123 121 121 119 119 119 118 118 117 116 115 115 114 114 114 114 112 111 111 110 110 111 110 109 110 110 108 105 103 99 100 100 100 98 95 93 91 90 93 99
158 161 165 165 163 171 162 225 270 45 270 288 274 190 199 135 109 106 128 130 113 146 120 125 119 78 76 109 123 99 43 37 79 107 107 136 141 149 155 154 151 149 149 146 140 139 141 142 141 138 134 131 130 129 129 128 125 123 121 120 120 120 119 118 117 116 114 113 112 111 111 112 112 111 110 110 109 108 107 105 106 107 105 104 105 104 99 98 97 96 95 91 90 89 90 95 100
164 165 164 164 167 202 22 186 253 62 279 266 275 221 150 130 119 96 104 115 121 125 110 114 97 63 81 101 101 76 73 57 107 105 120 142 142 151 158 155 151 149 149 146 142 144 144 142 141 136 134 133 131 132 131 128 125 123 123 122 122 121 121 121 119 118 115 114 112 111 111 112 112 110 108 106 106 105 103 102 106 104 104 107 108 106 103 101 98 96 95 93 92 92 93 97 98
168 169 164 165 168 236 198 208 251 128 242 235 269 251 160 146 120 102 99 115 131 121 106 113 87 12 60 95 70 69 100 114 133 124 137 157 155 154 158 155 152 150 149 147 146 147 145 143 142 136 135 134 133 134 131 128 126 126 126 125 124 123 122 121 120 119 116 114 112 111 111 111 110 108 105 102 105 106 105 103 103 102 105 107 106 106 106 106 103 101 99 100 99 98 99 97 95
169 169 171 181 191 205 221 247 268 193 241 192 239 255 157 132 122 114 112 122 134 111 102 112 92 27 64 80 35 107 115 117 149 152 143 162 157 153 157 157 153 150 149 148 149 148 146 145 142 139 137 135 136 135 132 130 128 128 127 125 124 122 121 120 119 118 117 115 112 113 111 109 108 105 104 102 103 105 105 103 100 103 104 102 103 107 110 110 109 106 103 105 104 101 102 100 97
165 167 188 225 309 204 275 278 254 245 250 177 192 260 147 130 130 123 118 112 74 86 88 86 104 108 86 58 44 115 142 126 153 167 152 157 156 154 157 157 154 151 150 149 152 149 147 148 143 141 139 138 138 136 134 132 131 130 127 124 123 122 122 121 120 119 118 116 114 114 112 109 107 104 105 105 104 103 105 105 103 101 98 99 104 108 113 112 109 108 105 105 105 103 99 97 98
160 161 203 252 294 236 296 283 254 247 253 193 183 223 148 138 131 128 130 121 87 70 61 96 118 107 86 84 84 79 141 143 152 165 159 154 154 155 157 158 154 152 151 151 153 150 148 149 145 143 141 141 140 138 136 134 133 131 128 125 123 123 123 121 119 120 118 117 115 113 111 109 106 104 101 101 102 102 101 101 99 95 95 98 104 110 117 116 109 110 108 106 107 106 100 94 96
167 177 180 243 291 18 305 281 258 224 244 214 171 172 150 143 138 137 139 129 121 101 87 125 123 97 76 88 102 66 95 138 152 159 156 152 153 155 158 158 155 153 153 154 154 151 150 150 147 145 144 143 142 140 138 136 134 130 128 126 123 123 123 122 120 120 120 118 115 111 109 106 104 104 99 99 100 100 95 93 94 94 95 95 99 104 110 114 111 110 110 110 110 110 106 95 89
184 220 136 249 333 335 274 270 259 234 247 246 97 149 141 136 136 132 125 106 113 115 119 141 112 101 113 90 102 80 95 133 147 151 151 151 153 156 159 160 158 155 155 155 155 153 152 152 149 147 147 145 144 142 139 138 134 131 129 126 124 124 123 122 121 119 119 117 115 112 109 106 105 104 101 100 98 96 92 90 92 90 90 92 96 98 101 105 108 111 110 111 110 111 108 99 90
197 226 302 40 57 308 284 257 245 244 256 254 315 149 134 135 137 127 117 116 119 112 114 104 80 112 128 103 100 107 124 139 142 145 151 152 154 157 159 162 162 157 156 156 156 155 154 154 151 149 149 147 146 143 141 140 135 133 130 128 125 124 124 123 123 120 119 118 117 114 110 108 106 105 102 100 97 95 94 94 96 93 92 93 96 96 96 98 101 105 107 109 107 108 106 101 96
190 176 263 346 243 285 262 260 274 271 272 331 350 102 134 141 134 120 111 117 117 115 129 95 93 120 116 104 91 122 134 140 142 146 153 154 154 158 160 163 164 159 158 159 158 156 155 156 154 152 152 149 148 146 144 141 138 134 130 129 125 125 126 124 124 121 120 119 118 115 110 109 107 105 102 101 99 98 97 96 99 99 99 98 97 97 95 95 97 99 103 108 107 107 102 96 91
209 141 120 299 249 222 232 269 285 284 327 23 155 119 140 147 130 124 122 125 122 121 150 128 135 135 104 111 115 124 134 140 146 148 153 154 155 159 161 163 164 162 160 161 159 157 157 159 157 155 154 152 150 148 146 144 140 135 131 128 127 128 126 125 123 120 120 118 117 113 111 111 108 106 104 103 101 100 98 96 98 98 99 98 96 97 96 96 96 96 99 103 106 108 99 87 82
255 106 100 236 215 202 255 277 269 119 358 270 170 129 138 144 135 141 123 130 139 134 157 141 148 138 102 123 125 129 138 144 149 149 151 152 155 158 160 162 164 163 163 162 160 158 159 161 161 158 156 154 152 151 149 147 144 139 136 132 131 130 127 126 123 120 119 118 117 113 114 113 109 107 106 105 104 104 102 99 98 97 99 97 95 95 94 96 95 95 95 96 99 102 101 88 76
238 59 111 247 256 250 253 263 261 145 273 229 137 124 137 125 132 136 123 135 150 141 127 134 140 112 110 137 135 149 148 149 151 149 150 150 154 156 158 162 164 165 165 165 162 161 162 163 163 160 159 157 155 154 152 151 147 144 142 138 135 132 130 128 124 122 120 119 118 115 117 114 111 109 107 107 106 107 105 102 98 95 96 95 95 94 94 96 95 95 92 89 90 93 99 91 77
221 36 142 267 315 290 240 220 220 153 235 187 141 134 114 50 132 120 135 145 139 125 119 133 152 101 149 170 158 166 153 151 152 149 148 148 151 154 156 160 163 167 168 168 166 164 165 166 165 163 163 161 159 157 155 154 151 150 147 143 140 136 134 131 129 127 125 124 121 120 120 118 115 111 110 109 106 107 105 100 96 93 92 91 92 91 95 97 95 94 91 85 81 82 85 82 77
225 354 225 279 268 260 234 212 136 139 231 161 144 138 104 7 116 102 171 139 114 138 128 148 202 144 167 178 148 152 151 151 150 147 146 144 148 150 154 159 162 167 170 170 169 169 168 168 168 166 166 164 163 161 159 158 154 154 151 148 145 141 139 136 133 131 130 130 128 129 129 128 122 115 111 107 105 107 106 98 94 94 91 92 88 85 89 90 93 92 87 83 76 74 73 72 69
171 333 242 262 242 238 221 198 167 162 190 146 152 150 126 115 88 75 204 109 126 152 130 121 169 107 143 140 137 146 148 149 149 146 144 143 147 149 154 159 163 168 171 173 173 173 172 171 171 169 169 169 166 165 163 161 158 157 155 152 149 147 144 141 139 137 138 136 135 140 139 136 128 121 115 110 110 110 112 104 97 95 89 94 92 91 93 88 90 89 84 84 80 69 67 65 59
196 198 230 250 226 235 213 190 196 166 155 155 172 165 143 148 142 161 130 101 131 142 98 92 64 72 111 125 136 144 147 149 150 148 147 148 151 154 159 163 166 170 173 176 177 177 176 175 175 174 173 173 170 169 168 164 162 163 160 158 155 154 152 151 149 147 148 145 148 152 149 146 139 135 125 117 114 113 120 110 103 99 95 104 103 103 105 100 98 98 90 78 79 59 47 46 35
215 209 224 238 212 229 239 231 244 188 163 154 170 171 152 156 151 171 152 131 148 136 109 100 88 97 113 128 138 146 150 151 154 154 153 155 158 160 162 165 168 172 175 178 179 179 179 178 180 179 177 176 175 172 171 169 168 169 166 164 162 160 161 162 160 158 158 158 161 161 157 155 149 142 131 117 109 119 128 115 107 99 99 110 106 113 120 126 146 137 106 81 80 52 32 14 346
214 230 235 245 233 259 281 266 265 142 156 148 164 173 152 157 148 166 150 145 169 159 150 135 128 133 131 137 144 150 154 155 158 158 159 160 163 165 164 167 170 174 177 179 180 181 182 182 183 183 182 181 179 177 175 174 173 174 173 171 169 167 169 171 172 169 168 170 170 166 163 160 153 148 139 130 125 131 139 135 131 113 118 134 138 164 175 166 173 135 113 95 81 45 37 7 327
172 205 220 246 231 248 277 280 272 127 153 150 152 154 152 160 152 163 142 141 194 192 181 166 153 149 143 148 150 155 159 159 162 162 163 164 166 168 168 170 172 176 178 180 182 183 184 185 186 186 186 185 183 182 180 179 178 178 178 178 176 174 176 178 180 179 177 179 176 171 170 165 160 158 153 150 145 140 145 161 159 145 146 153 156 170 185 193 198 109 90 41 5 7 22 356 302
212 225 229 253 285 264 279 303 304 112 127 135 142 162 159 153 162 170 157 165 208 200 187 164 153 152 150 154 154 158 163 163 166 167 168 168 169 170 170 171 173 177 179 182 184 185 186 188 188 188 188 188 188 187 185 183 182 183 184 183 183 183 182 183 185 184 183 184 183 182 178 175 176 171 169 164 155 149 149 170 178 163 152 152 154 162 178 204 223 216 207 274 290 277 300 321 289
247 245 238 243 256 263 273 308 311 95 128 159 162 174 147 146 179 180 178 187 180 157 160 147 149 153 150 153 157 162 167 169 171 172 172 171 172 172 172 173 175 178 180 184 185 186 188 189 191 191 189 190 192 191 190 189 187 187 189 189 190 189 187 187 188 187 187 188 188 189 184 182 187 183 183 174 164 162 152 169 197 193 165 159 180 186 211 230 230 223 209 229 254 267 267 260 267
241 256 253 244 244 256 265 293 293 227 172 181 157 159 159 171 178 176 195 197 120 120 135 137 144 150 151 155 164 169 170 172 174 175 175 174 175 175 174 175 176 178 181 185 186 187 189 190 192 193 192 193 194 195 194 194 192 191 193 194 195 195 193 191 191 191 190 191 190 192 192 192 195 194 193 184 176 175 162 177 201 217 228 250 251 232 242 248 245 245 235 253 262 268 256 239 266
229 242 249 254 249 262 273 282 278 248 194 156 142 173 187 185 158 173 201 188 132 130 130 137 143 151 159 162 167 171 171 172 173 174 177 177 176 175 175 177 178 181 184 186 187 188 190 192 193 195 195 195 197 198 197 198 197 196 197 198 199 200 198 194 193 195 194 194 193 196 200 202 203 202 201 197 198 192 183 195 206 226 245 256 254 245 260 261 270 281 285 299 301 293 274 257 280
219 232 247 268 267 276 281 275 268 251 209 147 162 209 214 192 145 188 206 168 139 134 134 142 147 157 166 169 170 172 172 173 174 175 176 178 177 177 179 179 181 185 187 187 188 190 191 193 195 196 198 198 199 200 200 201 201 200 201 201 202 203 201 199 198 199 199 199 198 199 205 208 208 210 212 215 220 218 216 220 223 235 242 239 242 245 257 261 279 302 309 309 314 309 298 281 279
212 226 252 260 266 272 268 268 264 254 218 174 183 217 221 192 179 218 204 155 143 138 144 149 153 164 169 172 175 175 176 176 176 175 174 176 180 182 181 182 185 187 188 189 191 192 192 194 196 198 199 200 201 202 203 203 204 203 204 205 205 205 204 203 202 203 204 202 201 203 208 212 216 220 223 229 236 239 239 239 240 243 236 233 241 242 245 247 262 298 302 304 316 307 296 280 273
279 248 267 256 260 263 252 254 253 243 220 194 189 218 213 162 214 229 177 151 149 145 152 157 160 168 171 174 176 178 181 179 176 175 177 180 184 185 183 185 186 187 190 191 192 192 192 195 197 199 200 202 203 205 205 205 206 206 206 208 208 209 208 207 206 206 206 205 205 208 211 215 220 225 230 235 242 247 249 252 251 246 237 233 243 243 240 242 247 264 287 303 324 311 290 249 263
276 281 286 275 290 275 252 242 237 211 213 193 167 229 235 189 215 209 157 153 152 151 157 163 166 168 171 174 176 180 182 179 180 183 185 185 186 186 186 188 187 188 191 192 192 193 194 196 197 199 201 203 205 207 207 207 209 209 209 211 211 212 212 211 210 209 209 209 210 213 215 219 223 227 232 236 243 249 254 257 256 250 241 239 245 249 250 250 256 259 277 302 322 326 328 302 299
242 242 256 278 319 292 255 219 211 201 208 175 151 221 240 216 215 171 152 154 149 154 163 165 168 170 172 175 177 182 183 182 186 189 189 188 188 189 189 189 189 189 191 192 193 194 196 196 197 199 201 203 206 208 209 210 211 212 213 213 215 215 215 215 214 212 214 215 216 218 218 221 224 228 234 238 246 254 258 259 257 252 246 249 251 253 260 260 269 273 274 299 318 328 342 321 306
213 195 214 229 263 281 253 185 185 196 209 164 163 224 236 223 206 164 159 158 155 161 170 169 170 172 173 178 180 182 186 189 191 191 191 191 189 190 190 189 191 191 190 191 194 195 196 197 197 199 201 204 207 208 211 213 214 215 215 215 216 218 218 217 217 216 218 221 222 221 220 221 224 229 236 243 251 258 260 259 255 251 247 250 252 254 265 271 280 288 285 301 314 320 349 315 287
206 172 226 186 185 257 268 198 178 188 221 167 172 223 238 223 192 169 166 163 163 166 171 173 173 175 177 180 182 184 189 190 192 193 194 194 192 192 192 190 191 192 192 192 194 195 196 198 198 199 202 204 206 209 211 214 216 217 218 218 218 220 221 220 220 220 221 225 228 225 222 223 227 231 238 245 253 260 259 255 251 247 244 246 250 256 266 276 287 293 294 309 318 330 354 286 261
324 198 230 180 181 241 282 267 208 189 189 178 191 215 236 218 180 169 170 169 170 167 172 177 176 178 179 181 184 184 187 189 193 196 195 195 194 194 193 193 192 193 194 193 193 194 196 198 199 200 203 204 206 208 211 214 217 219 220 221 221 223 224 223 223 223 225 228 229 227 224 226 230 233 237 243 252 260 257 250 247 244 242 243 247 255 263 274 285 287 290 303 310 322 301 266 258
277 207 220 224 192 218 251 290 254 191 176 187 207 222 237 220 168 169 176 173 173 172 176 180 179 181 181 183 186 186 187 190 194 195 194 194 195 196 196 195 194 194 195 195 194 195 196 197 199 201 203 205 206 207 210 213 216 220 222 223 225 225 227 227 225 226 228 228 227 226 227 231 234 235 235 238 248 258 252 245 244 242 241 243 245 252 261 268 277 280 285 294 296 290 282 265 250
212 188 189 233 224 227 221 255 250 179 187 195 199 221 237 226 164 175 181 177 178 181 181 180 181 182 182 185 188 189 191 196 196 193 193 194 195 196 196 196 195 195 195 196 196 196 196 197 199 201 203 204 205 206 208 211 215 219 222 225 227 228 229 229 227 227 228 226 224 225 230 235 237 236 233 234 243 253 248 238 236 238 240 242 242 247 254 259 264 267 269 279 281 276 284 262 231
178 180 177 192 217 245 231 236 228 163 188 215 200 216 227 207 180 185 183 183 186 186 181 181 184 183 184 188 192 192 196 200 195 191 192 193 195 196 195 196 195 195 196 195 195 196 196 197 198 200 202 204 204 204 205 207 212 216 220 222 224 227 228 229 227 226 227 225 222 226 231 236 238 235 232 234 241 249 247 235 231 236 242 243 242 245 251 256 262 264 262 263 263 264 278 258 216
156 162 195 200 213 252 247 240 236 157 171 232 217 219 224 205 189 190 183 186 191 187 184 186 187 187 188 190 193 196 200 199 189 189 192 193 195 195 195 195 194 194 195 195 195 196 197 197 198 199 201 202 201 202 203 205 208 211 215 218 221 224 225 227 225 224 225 223 222 226 232 236 238 236 234 237 241 246 245 236 231 235 241 243 244 249 253 258 264 264 262 259 247 238 253 240 199
245 175 211 230 221 247 262 250 248 163 168 248 231 226 236 218 194 190 180 185 196 192 188 191 191 191 193 193 195 198 198 190 184 189 192 192 194 194 194 195 194 193 194 195 195 196 197 198 199 200 200 200 202 203 203 206 209 211 213 216 220 222 223 225 223 222 222 222 223 227 231 236 239 238 236 239 242 245 245 239 235 235 239 242 242 248 250 253 258 256 253 255 242 219 223 208 184
243 237 224 250 233 250 275 257 233 169 188 264 231 214 241 231 198 188 184 189 199 197 193 192 189 189 194 197 198 196 191 184 186 190 191 192 193 192 194 195 195 195 194 195 196 196 197 198 200 200 199 201 203 204 205 207 210 212 214 216 219 221 224 226 224 223 223 225 226 227 232 236 239 238 236 239 242 244 245 243 238 236 239 241 240 243 245 246 249 248 246 250 245 215 201 192 183
224 225 221 236 219 189 249 256 278 200 211 231 200 210 251 237 182 194 201 200 200 200 201 197 190 192 195 196 196 193 188 187 188 190 190 191 193 193 194 196 195 195 195 195 195 195 196 198 200 200 201 202 203 204 206 208 209 211 214 217 220 221 225 227 227 227 228 230 230 229 232 236 238 238 235 238 241 243 246 245 241 238 239 242 240 240 243 244 245 247 243 242 242 219 199 193 190
218 221 221 223 220 209 250 293 338 328 290 203 155 267 289 231 175 208 212 210 213 209 204 205 206 203 197 192 196 197 194 190 188 189 189 190 193 194 195 195 195 195 195 195 195 195 197 199 200 201 202 203 204 205 206 206 205 207 210 213 216 217 221 225 224 225 229 231 230 229 231 234 237 237 234 236 239 242 247 247 243 240 241 243 240 237 241 246 249 250 246 242 243 226 209 203 200
228 224 218 216 220 222 290 327 347 2 326 277 164 212 284 262 207 216 200 196 215 209 200 209 212 203 194 195 199 200 199 195 191 191 189 190 192 193 194 195 195 196 197 197 196 197 198 199 200 201 202 203 205 206 205 203 202 202 203 203 204 206 209 215 218 221 225 226 226 228 229 232 235 237 235 236 237 240 247 249 245 242 243 242 238 236 238 243 249 252 252 248 248 236 219 212 210
238 215 198 207 209 191 158 94 258 209 250 272 158 176 258 305 253 226 190 192 208 201 203 213 209 196 197 203 201 197 199 196 195 195 191 189 190 191 194 195 196 197 198 197 197 198 198 199 200 201 202 203 205 205 203 202 201 201 202 203 205 205 205 211 217 220 222 222 224 228 229 230 233 235 236 237 237 239 245 248 246 243 242 240 236 237 238 242 249 252 256 254 252 245 228 222 220
235 177 159 186 194 195 186 176 222 237 263 280 247 150 223 286 264 233 186 198 212 202 209 214 203 201 205 208 204 197 199 195 193 195 192 191 190 192 195 196 198 198 197 196 196 197 199 199 200 201 202 203 204 204 203 202 202 201 203 205 208 209 210 214 217 218 220 222 223 226 228 229 231 233 237 240 238 239 243 246 247 245 242 239 236 238 241 244 249 251 255 255 252 251 240 234 231
225 149 147 167 184 201 186 177 229 259 322 277 240 151 207 265 272 274 177 198 219 211 214 214 202 204 207 208 206 200 199 196 194 197 195 193 191 193 196 197 198 198 196 196 197 198 199 199 200 200 201 202 203 203 203 204 204 203 203 204 208 212 215 217 218 218 219 220 221 222 225 227 229 231 235 239 239 239 241 244 246 246 244 242 239 240 244 245 247 250 254 255 252 252 251 246 242
203 142 147 149 170 186 169 181 209 209 242 253 233 170 208 267 273 278 180 197 219 216 218 214 207 209 208 208 208 202 197 194 197 200 198 197 193 194 196 196 197 198 198 198 197 198 198 199 199 200 201 201 202 202 203 205 205 205 205 205 207 211 214 216 218 218 218 218 218 219 221 225 227 230 233 237 238 238 241 242 245 246 246 246 242 242 244 246 247 249 254 258 255 253 254 252 249
155 133 137 102 139 136 143 176 155 199 243 244 224 177 188 253 261 238 214 205 208 209 217 216 211 214 212 212 210 201 195 195 198 200 198 198 196 195 195 195 195 197 198 198 198 198 197 198 198 199 201 201 201 202 203 205 205 206 207 207 208 210 211 212 212 214 214 214 215 217 220 223 226 229 231 234 236 237 239 241 243 245 247 248 246 245 245 247 249 251 256 260 257 254 252 252 252
164 154 151 127 323 88 135 77 130 218 241 241 213 172 184 232 253 235 229 225 210 204 211 211 208 211 212 212 208 201 198 197 196 195 193 193 195 195 194 194 195 195 196 196 197 197 197 198 198 198 201 201 201 202 204 205 205 206 209 209 209 209 209 210 210 211 212 213 215 216 218 221 224 227 228 232 234 234 236 239 241 243 245 247 247 246 246 247 250 253 257 258 256 256 252 251 251
184 169 150 175 232 160 194 216 208 226 246 243 176 154 193 229 240 238 235 233 221 211 211 210 207 208 209 208 205 201 199 196 192 190 190 190 194 196 193 193 193 193 194 195 196 196 196 198 197 198 200 200 201 202 203 205 206 207 209 209 210 209 209 211 212 212 213 214 216 216 217 219 221 223 225 229 230 231 234 236 239 240 242 247 249 248 247 247 249 252 253 254 254 254 254 252 251
190 182 166 182 189 186 210 218 238 245 258 260 151 148 218 235 228 231 230 232 226 214 216 215 211 211 210 208 202 200 199 195 194 191 189 193 195 195 193 193 193 193 194 194 195 196 196 197 197 198 200 200 201 202 203 205 206 209 210 209 210 209 210 212 213 214 215 216 217 218 220 221 222 224 226 229 230 230 233 236 239 241 243 247 250 250 249 247 248 249 249 250 251 253 255 256 254
194 186 170 181 181 185 199 195 221 235 253 263 176 166 205 189 210 221 220 229 223 213 222 219 217 217 209 201 196 197 200 197 198 195 194 197 195 193 193 194 194 193 193 193 194 195 195 196 197 197 199 199 200 202 203 204 207 209 209 209 209 209 210 212 214 216 217 218 219 220 222 224 226 229 230 231 232 232 234 237 239 242 244 247 250 251 251 249 247 247 247 249 250 253 255 256 256
198 172 175 202 183 166 181 197 197 178 222 246 213 206 214 204 254 244 221 231 220 213 225 221 222 219 191 181 188 193 199 197 197 199 199 199 194 192 194 195 195 194 193 194 194 194 195 195 196 197 199 199 200 202 203 205 207 208 209 209 209 209 210 211 213 216 218 220 221 222 224 226 229 231 233 234 234 234 236 238 240 242 243 246 250 251 252 251 248 246 247 249 250 251 253 255 257
180 173 194 198 155 150 201 243 203 123 207 235 211 240 260 252 273 279 215 227 224 219 225 224 226 212 178 185 193 193 196 194 196 200 200 197 192 193 195 195 194 193 193 195 195 195 195 195 195 197 198 199 200 202 203 205 207 208 208 209 209 210 210 212 214 216 218 220 222 224 226 228 230 233 235 236 236 236 237 238 241 242 243 245 249 251 252 252 250 248 247 249 250 252 254 255 256
149 188 191 147 103 154 191 239 258 195 227 259 243 225 221 199 248 276 162 203 225 226 222 225 229 207 185 198 199 194 195 193 196 200 198 194 192 194 195 196 197 195 195 196 195 195 196 196 196 195 196 198 200 202 203 205 206 207 208 209 209 210 211 213 215 217 217 218 221 224 226 229 232 234 236 237 237 237 237 238 240 241 242 245 249 252 253 253 252 250 249 250 252 254 256 257 258
178 177 166 149 153 187 181 205 222 213 234 274 282 239 212 204 224 214 184 200 217 224 223 226 226 210 199 206 203 197 196 193 197 199 195 191 191 193 195 197 198 197 196 195 195 195 196 197 197 196 197 199 200 201 203 205 206 207 208 209 210 211 212 214 215 216 216 218 221 224 226 229 233 234 235 236 237 238 238 238 238 240 242 244 248 252 253 254 253 251 250 251 252 255 257 258 259
196 159 159 171 186 188 182 188 190 197 224 247 276 284 243 227 210 181 193 204 206 213 220 222 221 215 208 207 203 197 193 194 197 197 194 192 193 195 195 196 196 196 195 193 192 194 196 196 197 197 198 199 199 200 202 204 206 207 208 209 210 211 212 214 214 215 216 219 221 223 225 229 231 233 235 236 237 239 240 240 239 240 241 243 247 250 252 253 253 253 252 253 253 254 256 259 260
206 187 177 182 195 190 193 205 173 174 195 206 243 264 253 246 207 180 193 203 202 204 209 214 218 214 212 211 204 195 192 197 198 196 196 195 195 196 194 194 193 192 191 190 191 193 195 196 196 196 197 197 198 199 201 203 205 206 207 209 210 211 212 213 214 215 217 220 221 222 225 228 230 232 234 235 236 238 240 241 241 241 242 243 246 248 250 251 252 253 253 254 255 255 256 258 260
253 237 205 189 185 146 183 226 219 184 197 187 197 253 261 252 210 187 195 201 204 203 201 211 218 209 207 213 207 196 194 199 199 197 198 197 196 194 190 187 186 187 189 190 191 192 193 195 195 196 195 196 197 198 200 202 204 205 207 209 210 211 212 213 214 215 218 219 220 222 225 227 228 231 233 235 236 238 239 241 241 242 243 244 246 248 249 250 250 252 253 253 254 254 255 257 258